Total_Precipitation_Accumulation
0.76 0.25 0.00 0.00 0.00 0.00 0.00 0.02 0.03 0.02 0.01 0.00 0.01 0.01 0.01 0.00 0.00 0.01 0.02 0.00 0.00 0.00 0.00 0.00 0.00 0.00 0.00 0.00 0.00 0.00 0.00 0.00 0.00
0.46 0.09 0.00 0.00 0.00 0.00 0.00 0.01 0.04 0.02 0.01 0.01 0.01 0.02 0.01 0.01 0.01 0.01 0.00 0.01 0.01 0.00 0.00 0.01 0.02 0.03 0.02 0.02 0.02 0.03 0.03 0.02 0.02
0.16 0.09 0.02 0.00 0.00 0.00 0.00 0.01 0.04 0.04 0.03 0.02 0.03 0.01 0.01 0.01 0.01 0.01 0.02 0.01 0.00 0.02 0.04 0.04 0.04 0.03 0.01 0.01 0.01 0.01 0.01 0.02 0.02
0.01 0.01 0.01 0.00 0.00 0.00 0.00 0.01 0.04 0.04 0.05 0.03 0.05 0.00 0.00 0.01 0.01 0.02 0.01 0.02 0.06 0.03 0.00 0.01 0.00 0.01 0.02 0.03 0.03 0.03 0.03 0.02 0.01
0.00 0.00 0.00 0.00 0.00 0.00 0.01 0.02 0.04 0.03 0.05 0.04 0.01 0.00 0.00 0.00 0.00 0.01 0.03 0.14 0.07 0.01 0.00 0.00 0.02 0.04 0.03 0.02 0.01 0.00 0.00 0.00 0.00
0.00 0.00 0.00 0.00 0.00 0.00 0.02 0.03 0.04 0.01 0.06 0.06 0.00 0.00 0.00 0.00 0.00 0.03 0.14 0.16 0.02 0.00 0.00 0.02 0.03 0.01 0.01 0.01 0.01 0.01 0.00 0.00 0.00
0.00 0.00 0.00 0.00 0.01 0.01 0.04 0.05 0.02 0.01 0.03 0.01 0.00 0.00 0.00 0.00 0.01 0.05 0.19 0.10 0.00 0.00 0.00 0.01 0.01 0.01 0.01 0.01 0.01 0.00 0.00 0.00 0.00
0.00 0.00 0.00 0.00 0.00 0.01 0.05 0.03 0.00 0.00 0.02 0.01 0.00 0.00 0.00 0.01 0.03 0.12 0.17 0.04 0.01 0.00 0.00 0.01 0.01 0.01 0.01 0.01 0.00 0.00 0.00 0.00 0.00
0.00 0.00 0.00 0.00 0.00 0.01 0.02 0.01 0.00 0.00 0.02 0.01 0.00 0.00 0.00 0.03 0.07 0.15 0.16 0.05 0.02 0.01 0.01 0.02 0.01 0.01 0.01 0.00 0.00 0.00 0.00 0.00 0.00
0.04 0.00 0.00 0.00 0.00 0.00 0.01 0.00 0.00 0.00 0.01 0.01 0.00 0.00 0.01 0.05 0.05 0.04 0.07 0.04 0.01 0.01 0.01 0.01 0.02 0.01 0.01 0.00 0.00 0.00 0.00 0.00 0.00
0.29 0.18 0.06 0.01 0.00 0.00 0.00 0.00 0.00 0.00 0.00 0.00 0.00 0.01 0.01 0.04 0.02 0.02 0.03 0.02 0.01 0.01 0.01 0.01 0.01 0.01 0.01 0.01 0.00 0.00 0.00 0.00 0.00
0.57 0.43 0.25 0.06 0.03 0.01 0.00 0.00 0.00 0.00 0.00 0.00 0.00 0.01 0.04 0.02 0.03 0.01 0.01 0.02 0.01 0.03 0.01 0.02 0.01 0.01 0.01 0.00 0.00 0.00 0.00 0.00 0.00
0.91 0.72 0.36 0.17 0.07 0.05 0.04 0.01 0.00 0.00 0.00 0.00 0.00 0.01 0.06 0.03 0.02 0.01 0.00 0.00 0.01 0.02 0.04 0.02 0.02 0.00 0.00 0.00 0.00 0.00 0.00 0.00 0.00
0.28 0.41 0.41 0.31 0.23 0.11 0.05 0.02 0.00 0.00 0.00 0.01 0.00 0.00 0.03 0.06 0.02 0.01 0.01 0.01 0.01 0.01 0.01 0.03 0.02 0.00 0.00 0.00 0.00 0.00 0.00 0.00 0.00
0.25 0.51 0.63 0.52 0.34 0.20 0.13 0.07 0.02 0.00 0.00 0.00 0.01 0.01 0.01 0.01 0.03 0.01 0.01 0.02 0.02 0.01 0.00 0.00 0.00 0.00 0.00 0.00 0.00 0.00 0.00 0.00 0.00
0.23 0.45 0.70 0.71 0.59 0.53 0.41 0.34 0.28 0.20 0.07 0.02 0.04 0.05 0.01 0.01 0.00 0.00 0.00 0.00 0.00 0.00 0.00 0.00 0.00 0.00 0.00 0.00 0.00 0.00 0.00 0.00 0.00
0.15 0.27 0.38 0.44 0.51 0.54 0.46 0.30 0.22 0.22 0.21 0.20 0.12 0.11 0.10 0.03 0.01 0.00 0.00 0.00 0.00 0.00 0.00 0.00 0.00 0.00 0.00 0.00 0.00 0.00 0.00 0.00 0.00
0.02 0.07 0.19 0.20 0.22 0.25 0.24 0.20 0.17 0.17 0.19 0.15 0.20 0.19 0.17 0.11 0.05 0.01 0.00 0.00 0.00 0.00 0.00 0.00 0.00 0.00 0.00 0.00 0.00 0.00 0.00 0.00 0.00
0.04 0.09 0.12 0.11 0.10 0.13 0.16 0.11 0.07 0.09 0.16 0.15 0.11 0.06 0.06 0.10 0.15 0.11 0.05 0.02 0.00 0.00 0.00 0.00 0.00 0.00 0.00 0.00 0.00 0.00 0.00 0.00 0.00
0.02 0.02 0.08 0.15 0.12 0.07 0.08 0.09 0.07 0.07 0.10 0.09 0.08 0.07 0.04 0.02 0.02 0.02 0.02 0.02 0.01 0.00 0.00 0.00 0.00 0.00 0.00 0.00 0.00 0.00 0.00 0.00 0.00